Regional Weather Roundup
Issued by NWS

Home | Current Version | Previous Version | Text Only | Print | Product List | Glossary Off
Versions: 1 2 3 4 5 6 7 8 9 10 11 12 13 14 15 16 17 18 19 20 21 22 23 24 25 26 27 28 29 30 31 32 33 34 35 36 37 38 39 40 41 42 43 44 45 46 47 48 49 50

000
ASUS43 KFSD 022310
RWRSD

WEATHER ROUNDUP FOR SOUTH DAKOTA
NATIONAL WEATHER SERVICE SIOUX FALLS SD
600 PM CDT TUE JUN 02 2015

NOTE: "FAIR" INDICATES FEW OR NO CLOUDS BELOW 12,000 FEET WITH NO
SIGNIFICANT WEATHER AND/OR OBSTRUCTIONS TO VISIBILITY.


SDZ001>005-009-010-012>017-030000-
NORTHWEST AND NORTH CENTRAL SOUTH DAKOTA

CITY           SKY/WX    TMP DP  RH WIND       PRES   REMARKS
BUFFALO          N/A     77  54  44 NW21G28   29.74S
FAITH            N/A     81  51  35 NW16      29.76R
MOBRIDGE       MOSUNNY   86  61  42 NW10      29.67S
$$

SDZ012>016-024>037-041>051-057-063-072>074-030000-
SOUTHWEST AND SOUTH CENTRAL SOUTH DAKOTA

CITY           SKY/WX    TMP DP  RH WIND       PRES   REMARKS
RAPID CTY ARPT TSTM      74  56  53 N13       29.81S
PIERRE         MOSUNNY   87  57  35 W12       29.69S
CUSTER         CLOUDY    71  56  58 E9        29.96R
ELLSWORTH AFB  TSTM      75  58  54 N8        29.81
PHILIP         MOSUNNY   86  56  35 NW7       29.73F
PINE RIDGE     PTSUNNY   78  59  51 CALM      29.82R
SPEARFISH      FAIR      75  54  46 N9G16     29.87R
WINNER         FAIR      88  59  37 S13       29.73F
$$

SDZ004>011-016>023-039-040-030000-
NORTHEAST SOUTH DAKOTA

CITY           SKY/WX    TMP DP  RH WIND       PRES   REMARKS
ABERDEEN       PTSUNNY   87  63  44 S16       29.68F
WATERTOWN      SUNNY     80  61  52 S18G32    29.76S
BROOKINGS      SUNNY     79  63  57 S24G33    29.80F
SISSETON         N/A     83  61  47 S21G26    29.73S
$$

SDZ017-020-022-023-036>040-048>070-030000-
SOUTHEAST SOUTH DAKOTA

CITY           SKY/WX    TMP DP  RH WIND       PRES   REMARKS
SIOUX FALLS    MOSUNNY   78  62  57 S20G28    29.82F
HURON          SUNNY     85  62  46 S18G28    29.71F
CHAMBERLAIN    PTSUNNY   83  64  52 S14       29.71S
MITCHELL       SUNNY     84  62  47 S18       29.75F
YANKTON        SUNNY     81  63  54 S17G25    29.79F
$$

ABBREVIATIONS USED IN REMARKS
   TC - TEMPERATURE IN CELSIUS
  WCI - WIND CHILL INDEX
   HX - HEAT INDEX
  VSB - VISIBILITY



USA.gov is the U.S. government's official web portal to all federal, state and local government web resources and services.